This demonstration page uses our WeatherBlox Daily Observations layout. Learn more.

Left ArrowRight Arrow

40.92501, -98.34201

Hourly Observations for October 1, 2022

Temp ( °F °C ) Dew Point ( °F °C ) Humidity (%) Winds ( mph kmh ) Pressure ( in mb ) Visibility ( mi km ) Precip ( " mm )
12:53 am 00:53 Clear 62 16.7 46 7.8 56 56 SSE 12 19 29.99 1016 10 16 0.00 0.00
1:53 am 01:53 Clear 61 16.1 45 7.2 56 56 SSE 12 19 30.00 1016 10 16 0.00 0.00
2:53 am 02:53 Clear 61 16.1 45 7.2 56 56 SSE 10 17 30.00 1016 10 16 0.00 0.00
3:53 am 03:53 Clear 59 15 45 7.2 60 60 SSE 10 17 30.01 1016 10 16 0.00 0.00
4:53 am 04:53 Clear 56 13.3 44 6.7 64 64 SE 10 17 30.03 1017 10 16 0.00 0.00
5:53 am 05:53 Clear 56 13.3 44 6.7 64 64 SSE 8 13 30.04 1017 10 16 0.00 0.00
6:53 am 06:53 Clear 54 12.2 43 6.1 66 66 SE 10 17 30.06 1018 10 16 0.00 0.00
7:53 am 07:53 Sunny 54 12.2 42 5.6 64 64 SE 12 19 30.07 1018 10 16 0.00 0.00
8:53 am 08:53 Sunny 58 14.4 41 5 53 53 SSE 15 24 30.08 1019 10 16 0.00 0.00
9:53 am 09:53 Sunny 65 18.3 41 5 41 41 S 17 28 30.09 1019 10 16 0.00 0.00
10:53 am 10:53 Sunny 72 22.2 42 5.6 34 34 S 18 30 30.09 1019 10 16 0.00 0.00
11:53 am 11:53 Sunny 78 25.6 45 7.2 31 31 SSE 15 24 30.08 1019 10 16 0.00 0.00
12:53 pm 12:53 Sunny 83 28.3 45 7.2 26 26 SSE 15 24 30.07 1018 10 16 0.00 0.00
1:53 pm 13:53 Sunny 81 27.2 44 6.7 27 27 SE 20 31 30.08 1019 10 16 0.00 0.00
2:53 pm 14:53 Sunny 84 28.9 45 7.2 26 26 SSE 20 31 30.05 1018 10 16 0.00 0.00
3:53 pm 15:53 Sunny 84 28.9 44 6.7 25 25 S 16 26 30.04 1017 10 16 0.00 0.00
4:53 pm 16:53 Sunny 84 28.9 43 6.1 24 24 S 17 28 30.05 1018 10 16 0.00 0.00
5:53 pm 17:53 Sunny 81 27.2 43 6.1 26 26 SSE 15 24 30.06 1018 10 16 0.00 0.00
6:53 pm 18:53 Sunny 77 25 44 6.7 31 31 SSE 10 17 30.07 1018 10 16 0.00 0.00
7:53 pm 19:53 Clear 72 22.2 43 6.1 35 35 SE 10 17 30.10 1019 10 16 0.00 0.00
8:53 pm 20:53 Clear 68 20 43 6.1 40 40 SE 10 17 30.11 1020 10 16 0.00 0.00
9:53 pm 21:53 Clear 66 18.9 42 5.6 42 42 SE 13 20 30.12 1020 10 16 0.00 0.00
10:53 pm 22:53 Clear 66 18.9 41 5 40 40 SSE 15 24 30.13 1020 10 16 0.00 0.00
11:53 pm 23:53 Clear 64 17.8 41 5 43 43 SSE 14 22 30.14 1021 10 16 0.00 0.00

Powered by AerisWeather